STARLINK-5699, 55449

Orbit data source: Space-Track

STARLINK-5699, 55449 is a payload satellite owned by SpaceX/Seattle (US) in LEO that was launched on Thu, 02 Feb 2023 UTC via an FALCON 9 launch vehicle from the Air Force Eastern Test Range (AFETR). Payload-class satellites include a variety of spacecraft equipped with specific instruments for various scientific and technological missions. These include communications satellites like Starlink; space stations such as the ISS; scientific satellites like the Hubble; Earth observation satellites from companies like Planet Labs, Umbra, and HawkEye 360; GPS; miniature CubeSats for education and research; and military/defense satellites.

Loading next visibility...
Identifier
55449, 2023-015A
Orbit
LEO
Country
Flag of USUS
Related business
Manufacturer
SpaceX/Seattle
Mission
Operational Commercial Communications
Bus & Motor
STARLINK, Unknown motor
Mass
305 kg wet, ~290 kg dry
Launch date (UTC)
2023-02-02 (3 years ago)
Launch vehicle
FALCON 9
Launch site
Air Force Eastern Test Range (AFETR)
Object type
Payload
Rocket body
Debris
Shape & HBR
Box + 1 Pan, 10.1 m
Radar Cross Section
13.562 m², Large (>1 m²)

Expand to show TLE details & history
Last TLE update: 20 hours ago

TLE from 20 hours ago
0 STARLINK-5699
1 55449U 23015A   26132.27444632 -.00003874  00000-0 -13473-3 0  9999
2 55449  43.0049 329.8813 0002050 260.6813  99.3806 15.26752664181386
Epoch: 2026-05-12T06:35Z
TLE epoch observation values (Epoch: 2026-05-12T06:35:12.162Z)
Latitude
-0.00004°
Longitude
1.02941°
Altitude
485.533 km
Speed
7.624 km/s
True Right ascension
21h 59m 31s
True Declination
0° 00' 00"
Sunlit
Object was in daylight at epoch
Visualization orbit readout
Latitude
Unknown
Longitude
Unknown
Altitude
Unknown
Speed
Unknown
Apparent Right ascension
Unknown
Apparent Declination
Unknown
Sunlit
N/A
Visualization observer readout
Local Sidereal Time
10:33:24
Azimuth
Unknown
Elevation
Unknown
Doppler factor
Unknown
Orbital elements
Apogee altitude
488.879 km
Perigee altitude
486.064 km
Semi-major axis
6,865.608 km
Eccentricity
0.00021
Inclination
43.0049°
RAAN
329.8813°
Arg. of periapsis
260.6813°
True anomaly
99.40378°
Mean anomaly
99.3806°
Eccentric anomaly
99.39219°
Mean motion
3.81526 °/min
Orbital period
94.36 mins
BSTAR
-0.00013473
Loading maneuver chart data...
Computing Atmospheric mass density...
Loading historical data...
Loading historical data...
Loading historical data...
Loading historical data...
Loading historical data...
Loading historical data...
Loading historical data...

Documentation

Showing up to 5 results
|